Beaufort, NC

4:15 AM EDT on May 28, 2018 (GMT -0400)
Smith

Weather History for KMRH - July, 2013

Change the Weather History Date:

Wednesday, July 24, 2013

  Actual Average Record
Temperature  
Mean Temperature 82 °F -  
Max Temperature 86 °F 87 °F 94 °F (1962)
Min Temperature 77 °F 72 °F 60 °F (1977)
Cooling Degree Days 16    
Growing Degree Days 32 (Base 50)    
Moisture  
Dew Point 76 °F    
Average Humidity 87    
Maximum Humidity 96    
Minimum Humidity 74    
Precipitation  
Precipitation 0.00 in - - ()
Sea Level Pressure  
Sea Level Pressure 29.79 in    
Wind  
Wind Speed 9 mph (SW)    
Max Wind Speed 17 mph    
Max Gust Speed 22 mph    
Visibility 8 miles    
Events      
Averages and records for this station are not official NWS values.
T = Trace of Precipitation, MM = Missing Value Source: NWS Daily Summary

Daily Weather History Graph

Daily Weather History Graph

Search for Another Location

Airport or City:

Astronomy

Jul. 24, 2013 Rise Set
Actual Time 6:10 AM EDT 8:14 PM EDT
Civil Twilight 5:42 AM EDT 8:43 PM EDT
Nautical Twilight 5:08 AM EDT 9:17 PM EDT
Astronomical Twilight 4:31 AM EDT 9:54 PM EDT
Moon 9:28 PM EDT (7/24) 8:20 AM EDT (7/24)
Length of Visible Light 15h 00m
Length of Day
14h 04m
Waning Gibbous, 95% of the Moon is Illuminated
Jul 24
Waning Gibbous
Jul 29
Last Quarter
Aug 6
New
Aug 14
First Quarter
Aug 20
Full

Hourly Weather History & Observations

Time (EDT) Temp. Heat Index Dew Point Humidity Pressure Visibility Wind Dir Wind Speed Gust Speed Precip Events Conditions
12:58 AM 78.1 °F - 75.0 °F 90% 29.79 in 8.0 mi WSW 9.2 mph - N/A   Clear
1:58 AM 78.1 °F - 75.0 °F 90% 29.77 in 8.0 mi SW 10.4 mph - N/A   Partly Cloudy
2:58 AM 79.0 °F - 75.9 °F 90% 29.76 in 8.0 mi WSW 8.1 mph - N/A   Overcast
3:58 AM 78.1 °F - 75.9 °F 93% 29.76 in 7.0 mi WSW 6.9 mph - N/A   Mostly Cloudy
4:58 AM 77.0 °F - 75.9 °F 96% 29.76 in 7.0 mi SW 6.9 mph - N/A   Partly Cloudy
5:58 AM 77.0 °F - 75.0 °F 94% 29.76 in 7.0 mi Calm Calm - N/A   Partly Cloudy
6:58 AM 78.1 °F - 75.9 °F 93% 29.77 in 5.0 mi SW 4.6 mph - N/A   Clear
7:58 AM 79.0 °F - 75.0 °F 88% 29.79 in 7.0 mi WSW 6.9 mph - N/A   Partly Cloudy
8:58 AM 80.1 °F 85.4 °F 75.9 °F 87% 29.80 in 6.0 mi WSW 8.1 mph - N/A   Clear
9:58 AM 82.0 °F 90.2 °F 77.0 °F 85% 29.80 in 6.0 mi WSW 5.8 mph - N/A   Haze
10:58 AM 84.0 °F 93.7 °F 77.0 °F 79% 29.81 in 6.0 mi SW 8.1 mph - N/A   Haze
11:58 AM 84.9 °F 96.6 °F 78.1 °F 80% 29.81 in 7.0 mi SSW 9.2 mph - N/A   Clear
12:58 PM 86.0 °F 96.9 °F 77.0 °F 74% 29.80 in 8.0 mi SW 11.5 mph - N/A   Clear
1:58 PM 84.9 °F 95.3 °F 77.0 °F 77% 29.80 in 8.0 mi SW 15.0 mph - N/A   Clear
2:58 PM 82.9 °F 90.8 °F 75.9 °F 79% 29.79 in 7.0 mi SSW 15.0 mph - N/A   Clear
3:58 PM 84.0 °F 94.8 °F 78.1 °F 82% 29.79 in 7.0 mi SSW 17.3 mph 21.9 mph N/A   Clear
4:58 PM 82.9 °F 91.8 °F 77.0 °F 82% 29.78 in 7.0 mi SSW 13.8 mph - N/A   Clear
5:58 PM 82.0 °F 90.2 °F 77.0 °F 85% 29.79 in 8.0 mi SSW 13.8 mph - N/A   Clear
6:58 PM 80.1 °F 85.4 °F 75.9 °F 87% 29.78 in 8.0 mi SSW 15.0 mph 21.9 mph N/A   Partly Cloudy
7:58 PM 79.0 °F - 75.9 °F 90% 29.80 in 9.0 mi SSW 13.8 mph - N/A   Clear
8:58 PM 79.0 °F - 75.9 °F 90% 29.82 in 10.0 mi SW 10.4 mph - N/A   Clear
9:58 PM 79.0 °F - 77.0 °F 94% 29.83 in 9.0 mi SW 9.2 mph - N/A   Clear
10:58 PM 79.0 °F - 77.0 °F 94% 29.83 in 9.0 mi SSW 8.1 mph - N/A   Clear
11:58 PM 79.0 °F - 77.0 °F 94% 29.83 in 9.0 mi SW 4.6 mph - N/A   Clear